User: anonymous   Login
Location: Unspecified
(0.0000°N, 0.0000°E)
Time: 19:07:43
(UTC+00:00)
Language:

COSMOS 2523 - Orbit

View from above orbital plane
View from above orbital plane
View from above satellite
View from above satellite

Ground track
Ground track

The orbit is defined by the following mean orbital elements,

1 42986U          26145.65108603 +.00000000 +00000-0 +15846-3 0 00006
2 42986  97.4993 159.7136 0065549 306.4444  53.0746 14.95351733    04
Epoch (UTC): 25 May 2026 15:37:33
Eccentricity: 0.0065549
inclination: 97.4993°
perigee height: 536 km
apogee height: 627 km
right ascension of ascending node: 159.7136°
argument of perigee: 306.4444°
revolutions per day: 14.95351733
mean anomaly at epoch: 53.0746°

The dashed part of the orbit path shows where the satellite is in the earth's shadow,  

DLR